Regional Weather Roundup
Issued by NWS Charleston, WV

Home | Current Version | Previous Version | Text Only | Print | Product List | Glossary Off
Versions: 1 2 3 4 5 6 7 8 9 10 11 12 13 14 15 16 17 18 19 20 21 22 23 24 25 26 27 28 29 30 31 32 33 34 35 36 37 38 39 40 41 42 43 44 45 46 47 48 49 50

000
ASUS41 KRLX 271810
RWRRLX
West Virginia Regional Weather Roundup
National Weather Service Charleston WV
100 PM EST THU NOV 27 2014

Note: "fair" indicates few or no clouds below 12,000 feet with no
significant weather and/or obstructions to visibility.

WVZ003-271900-
Northern Panhandle of West Virginia

CITY           SKY/WX    TMP DP  RH WIND       PRES   REMARKS
WHEELING       LGT SNOW  32  28  85 W9        30.09S VSB 1
$$

WVZ009-271900-
Northwest West Virginia

CITY           SKY/WX    TMP DP  RH WIND       PRES   REMARKS
PARKERSBURG    CLOUDY    34  27  75 W9        30.18F
$$

WVZ006-271900-
Western West Virginia

CITY           SKY/WX    TMP DP  RH WIND       PRES   REMARKS
HUNTINGTON     CLOUDY    34  23  64 W8        30.21S
$$

WVZ015-271900-
West Central West Virginia

CITY           SKY/WX    TMP DP  RH WIND       PRES   REMARKS
CHARLESTON     CLOUDY    34  25  69 W13G20    30.18S
$$

WVZ022-031-271900-
North Central West Virginia

CITY           SKY/WX    TMP DP  RH WIND       PRES   REMARKS
CLARKSBURG     CLOUDY    35  27  72 W8        30.09S
MORGANTOWN     CLOUDY    37  23  56 VRB5      30.08R
$$

WVZ025-035-042-045-271900-
Southern West Virginia

CITY           SKY/WX    TMP DP  RH WIND       PRES   REMARKS
BECKLEY        CLOUDY    30  22  72 NW13      30.09R
LOGAN          CLOUDY    32  25  74 W10G16    30.16S
BLUEFIELD      CLOUDY    31  23  72 W14G23    30.08S
LEWISBURG      CLOUDY    35  26  70 NW12      30.06S
$$

WVZ047-271900-
Northern Mountains of West Virginia

CITY           SKY/WX    TMP DP  RH WIND       PRES   REMARKS
ELKINS         LGT SNOW  32  27  81 NW9       30.05S
$$

WVZ052-271900-
Eastern Panhandle of West Virginia

CITY           SKY/WX    TMP DP  RH WIND       PRES   REMARKS
MARTINSBURG    MOSUNNY   42  26  53 NW12      30.04S
PETERSBURG     CLOUDY    36  34  95 CALM      30.06S
$$



USA.gov is the U.S. government's official web portal to all federal, state and local government web resources and services.